User: anonymous   Login
Location: Palomar Mountain Lodge
(33.3110°N, 116.8495°W)
Time: 02:57:39
(UTC-07:00)
Language:

Lacrosse 5 - Orbit

View from above orbital plane
View from above orbital plane
View from above satellite
View from above satellite

Ground track
Ground track

The orbit data is extracted from the following two-line orbital elements,

1 28646U 05016A   19113.93337579 0.00000000  00000-0  00000-0 0    02
2 28646  57.0131 124.9775 0003860  82.5157 277.4843 14.51896753    09
Epoch (UTC): 23 April 2019 22:24:03
Eccentricity: 0.0003860
inclination: 57.0131°
perigee height: 717 km
apogee height: 722 km
right ascension of ascending node: 124.9775°
argument of perigee: 82.5157°
revolutions per day: 14.51896753
mean anomaly at epoch: 277.4843°
orbit number at epoch: 0

The dashed part of the orbit path shows where the satellite is in the earth's shadow,  

DLR